Starlink 30969

operational
NORAD ID: 58438 Int'l Des: 2023-183 Owner: SPXS Country: US Constellation: starlink
LEOCIRCULAR

About Starlink 30969

Description loading...

Live Position

Loading 3D Globe...

Upcoming Passes

Altitude History

Altitude vs Time

uPlot chart will show altitude changes over time

Two-Line Element Set

1 58438U 23183B 25312.50799633 .00000952 00000-0 85530-4 0 9991
2 58438 43.0037 341.9402 0001221 277.2679 82.8024 15.02538801108484
Epoch: Nov 8, 2025 • Age: 43 hours

Current Status

Altitude 559.5 km
Velocity 7.58 km/s
Sub-Earth Point -6.42°S, 167.18°E
Launch Date Nov 28, 2023
Age 1.9 years
Type internet

Technical Details

Classification Payload
Mass 730.00 kg
Dry Mass 700.00 kg
Total Mass 730.00 kg
Length 0.30 m
Diameter 4.10 m
Span 29.00 m
Shape Box + pan
Manufacturer SPXS
Bus Type Starlink V2M
Phase Status In Orbit
Owner/State SPXS/US

Large Constellations

Loading constellations...